• In Czech Republic
  • List of Countries
  • For 7 days
  • Water Temperature
  • Satellite Maps
  • Weather Map
  • Weather Widgets
  • user-avatar
    Login

    Hourly Weather Mendoza

    Today, 21 June, Thursday

    Time Temperature Precipitation Wind Pressure Humidity
    00:00 +12°C° 0 mm 3 mps 701 mmHg 40%
    01:00 +12°C° 0 mm 3 mps 701 mmHg 38%
    02:00 +11°C° 0 mm 3 mps 701 mmHg 38%
    03:00 +11°C° 0 mm 3 mps 701 mmHg 39%
    04:00 +11°C° 0 mm 4 mps 701 mmHg 39%
    05:00 +10°C° 0 mm 3 mps 701 mmHg 44%
    06:00 +9°C° 0 mm 3 mps 702 mmHg 48%
    07:00 +8°C° 0 mm 3 mps 702 mmHg 53%
    08:00 +10°C° 0 mm 3 mps 702 mmHg 47%
    09:00 +12°C° 0 mm 3 mps 702 mmHg 41%
    10:00 +13°C° 0 mm 3 mps 702 mmHg 35%
    11:00 +14°C° 0 mm 3 mps 702 mmHg 32%
    12:00 +16°C° 0 mm 3 mps 702 mmHg 29%
    13:00 +17°C° 0 mm 3 mps 701 mmHg 26%
    14:00 +17°C° 0 mm 3 mps 701 mmHg 26%
    15:00 +16°C° 0 mm 3 mps 700 mmHg 27%
    16:00 +16°C° 0 mm 2 mps 700 mmHg 27%
    17:00 +15°C° 0 mm 2 mps 700 mmHg 28%
    18:00 +14°C° 0 mm 2 mps 700 mmHg 30%
    19:00 +12°C° 0 mm 2 mps 700 mmHg 31%
    20:00 +12°C° 0 mm 2 mps 699 mmHg 31%
    21:00 +10°C° 0 mm 3 mps 699 mmHg 31%
    22:00 +10°C° 0 mm 3 mps 699 mmHg 32%
    23:00 +10°C° 0 mm 3 mps 698 mmHg 32%

    Tomorrow, 22 June, Friday

    Time Temperature Precipitation Wind Pressure Humidity
    00:00 +9°C° 0 mm 2 mps 698 mmHg 33%
    01:00 +9°C° 0 mm 2 mps 698 mmHg 34%
    02:00 +9°C° 0 mm 2 mps 698 mmHg 34%
    03:00 +8°C° 0 mm 2 mps 697 mmHg 34%
    04:00 +8°C° 0 mm 2 mps 697 mmHg 35%
    05:00 +8°C° 0 mm 2 mps 697 mmHg 35%
    06:00 +8°C° 0 mm 2 mps 697 mmHg 36%
    07:00 +8°C° 0 mm 2 mps 697 mmHg 36%
    08:00 +10°C° 0 mm 2 mps 697 mmHg 35%
    09:00 +13°C° 0 mm 2 mps 697 mmHg 33%
    10:00 +15°C° 0 mm 2 mps 696 mmHg 32%
    11:00 +16°C° 0 mm 2 mps 696 mmHg 31%
    12:00 +17°C° 0 mm 3 mps 695 mmHg 31%
    13:00 +18°C° 0 mm 3 mps 694 mmHg 30%
    14:00 +18°C° 0 mm 3 mps 694 mmHg 31%
    15:00 +17°C° 0 mm 2 mps 694 mmHg 32%
    16:00 +17°C° 0 mm 2 mps 694 mmHg 33%
    17:00 +14°C° 0 mm 3 mps 694 mmHg 33%
    18:00 +13°C° 0 mm 3 mps 694 mmHg 33%
    19:00 +12°C° 0 mm 3 mps 695 mmHg 33%
    20:00 +12°C° 0 mm 3 mps 695 mmHg 32%
    21:00 +12°C° 0 mm 4 mps 695 mmHg 30%
    22:00 +11°C° 0 mm 4 mps 695 mmHg 29%
    23:00 +11°C° 0 mm 4 mps 696 mmHg 30%

    Day after tomorrow, 23 June, Saturday

    Time Temperature Precipitation Wind Pressure Humidity
    00:00 +11°C° 0 mm 4 mps 696 mmHg 32%
    01:00 +11°C° 0 mm 4 mps 696 mmHg 34%
    02:00 +10°C° 0 mm 4 mps 696 mmHg 38%
    03:00 +10°C° 0 mm 4 mps 696 mmHg 43%
    04:00 +8°C° 0 mm 4 mps 696 mmHg 47%
    05:00 +8°C° 0 mm 4 mps 697 mmHg 46%
    06:00 +7°C° 0 mm 4 mps 698 mmHg 46%
    07:00 +7°C° 0 mm 4 mps 699 mmHg 45%
    08:00 +8°C° 0 mm 4 mps 699 mmHg 44%
    09:00 +11°C° 0 mm 4 mps 700 mmHg 43%
    10:00 +12°C° 0 mm 4 mps 701 mmHg 42%
    11:00 +12°C° 0 mm 4 mps 701 mmHg 43%
    12:00 +12°C° 0 mm 4 mps 701 mmHg 44%
    13:00 +12°C° 0 mm 4 mps 701 mmHg 45%
    14:00 +12°C° 0 mm 3 mps 701 mmHg 47%
    15:00 +11°C° 0 mm 3 mps 701 mmHg 49%
    16:00 +12°C° 0 mm 2 mps 702 mmHg 51%
    17:00 +10°C° 0 mm 2 mps 702 mmHg 54%
    18:00 +10°C° 0 mm 1 mps 703 mmHg 57%
    19:00 +10°C° 0 mm 1 mps 704 mmHg 60%
    20:00 +9°C° 0 mm 1 mps 704 mmHg 61%
    21:00 +9°C° 0 mm 1 mps 704 mmHg 61%
    22:00 +9°C° 0 mm 1 mps 704 mmHg 62%
    23:00 +9°C° 0 mm 1 mps 704 mmHg 62%

    24 June, Sunday

    Time Temperature Precipitation Wind Pressure Humidity
    00:00 +7°C° 0 mm 2 mps 703 mmHg 62%
    01:00 +7°C° 0 mm 2 mps 703 mmHg 62%
    02:00 +7°C° 0 mm 2 mps 702 mmHg 62%
    03:00 +7°C° 0 mm 2 mps 701 mmHg 62%
    04:00 +6°C° 0 mm 2 mps 701 mmHg 62%
    05:00 +6°C° 0 mm 2 mps 701 mmHg 62%
    06:00 +6°C° 0 mm 2 mps 701 mmHg 61%
    07:00 +6°C° 0 mm 2 mps 701 mmHg 60%
    08:00 +8°C° 0 mm 3 mps 700 mmHg 53%
    09:00 +10°C° 0 mm 3 mps 700 mmHg 46%
    10:00 +12°C° 0 mm 4 mps 700 mmHg 39%
    11:00 +13°C° 0 mm 4 mps 700 mmHg 37%
    12:00 +13°C° 0 mm 4 mps 699 mmHg 35%
    13:00 +14°C° 0 mm 5 mps 698 mmHg 33%
    14:00 +14°C° 0 mm 4 mps 698 mmHg 34%
    15:00 +14°C° 0 mm 4 mps 698 mmHg 35%
    16:00 +14°C° 0 mm 3 mps 698 mmHg 36%
    17:00 +13°C° 0 mm 3 mps 698 mmHg 37%
    18:00 +11°C° 0 mm 3 mps 698 mmHg 39%
    19:00 +10°C° 0 mm 2 mps 699 mmHg 41%
    20:00 +10°C° 0 mm 2 mps 699 mmHg 39%
    21:00 +10°C° 0 mm 2 mps 699 mmHg 38%
    22:00 +10°C° 0 mm 2 mps 699 mmHg 37%
    23:00 +9°C° 0 mm 2 mps 699 mmHg 37%

    25 June, Monday

    Time Temperature Precipitation Wind Pressure Humidity
    00:00 +9°C° 0 mm 2 mps 699 mmHg 37%
    01:00 +9°C° 0 mm 2 mps 698 mmHg 37%
    02:00 +8°C° 0 mm 2 mps 698 mmHg 38%
    03:00 +8°C° 0 mm 2 mps 698 mmHg 39%
    04:00 +7°C° 0 mm 2 mps 698 mmHg 40%
    05:00 +7°C° 0 mm 2 mps 698 mmHg 40%
    06:00 +7°C° 0 mm 2 mps 699 mmHg 41%
    07:00 +6°C° 0 mm 2 mps 699 mmHg 41%
    08:00 +9°C° 0 mm 2 mps 699 mmHg 36%
    09:00 +12°C° 0 mm 2 mps 699 mmHg 32%
    10:00 +14°C° 0 mm 2 mps 699 mmHg 27%
    11:00 +15°C° 0 mm 2 mps 699 mmHg 25%
    12:00 +16°C° 0 mm 3 mps 698 mmHg 24%
    13:00 +17°C° 0 mm 3 mps 697 mmHg 22%
    14:00 +17°C° 0 mm 3 mps 697 mmHg 22%
    15:00 +17°C° 0 mm 3 mps 697 mmHg 23%
    16:00 +16°C° 0 mm 2 mps 697 mmHg 24%
    17:00 +15°C° 0 mm 2 mps 697 mmHg 25%
    18:00 +14°C° 0 mm 2 mps 697 mmHg 27%
    19:00 +13°C° 0 mm 2 mps 697 mmHg 29%
    20:00 +12°C° 0 mm 2 mps 697 mmHg 30%
    21:00 +12°C° 0 mm 2 mps 696 mmHg 31%
    22:00 +11°C° 0 mm 3 mps 696 mmHg 32%
    23:00 +10°C° 0 mm 3 mps 696 mmHg 33%

    26 June, Tuesday

    Time Temperature Precipitation Wind Pressure Humidity
    00:00 +10°C° 0 mm 3 mps 695 mmHg 35%
    01:00 +9°C° 0 mm 3 mps 695 mmHg 36%
    02:00 +9°C° 0 mm 3 mps 695 mmHg 37%
    03:00 +9°C° 0 mm 3 mps 694 mmHg 38%
    04:00 +9°C° 0 mm 3 mps 694 mmHg 39%
    05:00 +8°C° 0 mm 3 mps 694 mmHg 40%
    06:00 +8°C° 0 mm 3 mps 694 mmHg 41%
    07:00 +8°C° 0 mm 3 mps 694 mmHg 42%
    08:00 +10°C° 0 mm 3 mps 694 mmHg 38%
    09:00 +13°C° 0 mm 3 mps 694 mmHg 33%
    10:00 +16°C° 0 mm 3 mps 694 mmHg 29%
    11:00 +17°C° 0 mm 3 mps 694 mmHg 27%
    12:00 +18°C° 0 mm 3 mps 693 mmHg 24%
    13:00 +19°C° 0 mm 3 mps 693 mmHg 22%
    14:00 +19°C° 0 mm 3 mps 693 mmHg 23%
    15:00 +18°C° 0 mm 3 mps 693 mmHg 24%
    16:00 +18°C° 0 mm 2 mps 692 mmHg 25%
    17:00 +16°C° 0 mm 2 mps 692 mmHg 27%
    18:00 +15°C° 0 mm 2 mps 692 mmHg 29%
    19:00 +14°C° 0 mm 2 mps 692 mmHg 31%
    20:00 +12°C° 0 mm 3 mps 692 mmHg 31%
    21:00 +12°C° 0 mm 3 mps 692 mmHg 30%
    22:00 +11°C° 0 mm 3 mps 692 mmHg 30%
    23:00 +11°C° 0 mm 3 mps 692 mmHg 32%
    Show more